Time,TemperatureF,DewpointF,PressureIn,WindDirection,WindDirectionDegrees,WindSpeedMPH,WindSpeedGustMPH,Humidity,HourlyPrecipIn,Conditions,Clouds,dailyrainin,SoftwareType,DateUTC
2013-02-18 00:01:00,31.0,22.0,-100.00,NE,50,1.0,9.0,68,-99.99,,,-99.99,,2013-02-18 07:01:00,
2013-02-18 00:11:00,31.0,21.0,-100.00,SSE,150,0.0,6.0,67,-99.99,,,-99.99,,2013-02-18 07:11:00,
2013-02-18 00:21:00,31.0,22.0,-100.00,South,170,0.0,1.0,68,-99.99,,,-99.99,,2013-02-18 07:21:00,
2013-02-18 00:31:00,31.0,22.0,-100.00,South,170,0.0,1.0,68,-99.99,,,-99.99,,2013-02-18 07:31:00,
2013-02-18 00:42:00,-999.0,-99.9,-100.00,SW,225,6.0,8.0,100,-99.99,,,-99.99,,2013-02-18 07:42:00,
2013-02-18 00:52:00,-999.0,-99.9,-100.00,SW,225,6.0,8.0,100,-99.99,,,-99.99,,2013-02-18 07:52:00,
2013-02-18 01:02:00,-999.0,-99.9,-100.00,SW,235,6.0,9.0,100,-99.99,,,-99.99,,2013-02-18 08:02:00,
2013-02-18 01:11:00,-999.0,-99.9,-100.00,SW,235,6.0,9.0,100,-99.99,,,-99.99,,2013-02-18 08:11:00,
2013-02-18 01:22:00,-999.0,-99.9,-100.00,SW,235,6.0,9.0,100,-99.99,,,-99.99,,2013-02-18 08:22:00,
2013-02-18 01:33:00,-999.0,-99.9,-100.00,West,280,4.0,7.0,100,-99.99,,,-99.99,,2013-02-18 08:33:00,
2013-02-18 01:42:00,-999.0,-99.9,-100.00,WSW,245,6.0,6.0,100,-99.99,,,-99.99,,2013-02-18 08:42:00,
2013-02-18 01:52:00,29.0,23.0,-100.00,SW,220,4.0,6.0,77,-99.99,,,-99.99,,2013-02-18 08:52:00,
2013-02-18 02:02:00,29.0,23.0,-100.00,SW,220,4.0,6.0,77,-99.99,,,-99.99,,2013-02-18 09:02:00,
2013-02-18 02:22:00,-999.0,-99.9,-100.00,West,275,2.0,9.0,100,-99.99,,,-99.99,,2013-02-18 09:22:00,
2013-02-18 02:32:00,-999.0,-99.9,-100.00,SW,225,6.0,7.0,100,-99.99,,,-99.99,,2013-02-18 09:32:00,
2013-02-18 02:42:00,28.0,21.0,-100.00,SSW,195,1.0,7.0,75,-99.99,,,-99.99,,2013-02-18 09:42:00,
2013-02-18 02:52:00,28.0,21.0,-100.00,SSW,210,1.0,3.0,75,-99.99,,,-99.99,,2013-02-18 09:52:00,
2013-02-18 03:01:00,28.0,21.0,-100.00,SSW,210,1.0,3.0,75,-99.99,,,-99.99,,2013-02-18 10:01:00,
2013-02-18 03:12:00,-999.0,-99.9,-100.00,SW,215,2.0,6.0,100,-99.99,,,-99.99,,2013-02-18 10:12:00,
2013-02-18 03:22:00,-999.0,-99.9,-100.00,SW,215,2.0,6.0,100,-99.99,,,-99.99,,2013-02-18 10:22:00,
2013-02-18 03:32:00,-999.0,-99.9,-100.00,SW,215,0.0,6.0,100,-99.99,,,-99.99,,2013-02-18 10:32:00,
2013-02-18 03:43:00,-999.0,-99.9,-100.00,SW,215,0.0,6.0,100,-99.99,,,-99.99,,2013-02-18 10:43:00,
2013-02-18 03:54:00,-999.0,-99.9,-100.00,SW,220,2.0,4.0,100,-99.99,,,-99.99,,2013-02-18 10:54:00,
2013-02-18 04:02:00,-999.0,-99.9,-100.00,SW,220,2.0,4.0,100,-99.99,,,-99.99,,2013-02-18 11:02:00,
2013-02-18 04:12:00,-999.0,-99.9,-100.00,SW,220,2.0,4.0,100,-99.99,,,-99.99,,2013-02-18 11:12:00,
2013-02-18 04:22:00,-999.0,-99.9,-100.00,SW,220,2.0,6.0,100,-99.99,,,-99.99,,2013-02-18 11:22:00,
2013-02-18 04:33:00,-999.0,-99.9,-100.00,SW,220,4.0,9.0,100,-99.99,,,-99.99,,2013-02-18 11:33:00,
2013-02-18 04:43:00,-999.0,-99.9,-100.00,SW,220,4.0,9.0,100,-99.99,,,-99.99,,2013-02-18 11:43:00,
2013-02-18 04:54:00,-999.0,-99.9,-100.00,WNW,300,6.0,12.0,100,-99.99,,,-99.99,,2013-02-18 11:54:00,
2013-02-18 05:22:00,-999.0,-99.9,-100.00,SW,235,7.0,11.0,100,-99.99,,,-99.99,,2013-02-18 12:22:00,
2013-02-18 05:31:00,23.0,16.0,-100.00,SW,215,3.0,7.0,72,-99.99,,,-99.99,,2013-02-18 12:31:00,
2013-02-18 05:42:00,23.0,16.0,-100.00,SW,215,3.0,7.0,72,-99.99,,,-99.99,,2013-02-18 12:42:00,
2013-02-18 05:53:00,23.0,16.0,-100.00,SW,215,3.0,7.0,72,-99.99,,,-99.99,,2013-02-18 12:53:00,
2013-02-18 06:03:00,-999.0,-99.9,-100.00,SW,220,2.0,7.0,100,-99.99,,,-99.99,,2013-02-18 13:03:00,
2013-02-18 06:11:00,22.0,15.0,-100.00,West,275,4.0,6.0,73,-99.99,,,-99.99,,2013-02-18 13:11:00,
2013-02-18 06:22:00,23.0,16.0,-100.00,SW,225,4.0,9.0,74,-99.99,,,-99.99,,2013-02-18 13:22:00,
2013-02-18 06:32:00,23.0,16.0,-100.00,SW,225,4.0,9.0,74,-99.99,,,-99.99,,2013-02-18 13:32:00,
2013-02-18 06:43:00,-999.0,-99.9,-100.00,SW,215,4.0,11.0,100,-99.99,,,-99.99,,2013-02-18 13:43:00,
2013-02-18 06:52:00,22.0,15.0,-100.00,SW,215,2.0,7.0,74,-99.99,,,-99.99,,2013-02-18 13:52:00,
2013-02-18 07:02:00,22.0,15.0,-100.00,SW,225,2.0,4.0,74,-99.99,,,-99.99,,2013-02-18 14:02:00,
2013-02-18 07:22:00,-999.0,-99.9,-100.00,West,265,2.0,6.0,100,-99.99,,,-99.99,,2013-02-18 14:22:00,
2013-02-18 07:34:00,-999.0,-99.9,-100.00,West,265,2.0,6.0,100,-99.99,,,-99.99,,2013-02-18 14:34:00,
2013-02-18 07:42:00,-999.0,-99.9,-100.00,South,170,4.0,8.0,100,-99.99,,,-99.99,,2013-02-18 14:42:00,
2013-02-18 07:52:00,22.0,15.0,-100.00,SW,235,4.0,11.0,76,-99.99,,,-99.99,,2013-02-18 14:52:00,
2013-02-18 08:01:00,22.0,15.0,-100.00,SW,235,4.0,11.0,76,-99.99,,,-99.99,,2013-02-18 15:01:00,
2013-02-18 08:12:00,-999.0,-99.9,-100.00,SW,225,6.0,8.0,100,-99.99,,,-99.99,,2013-02-18 15:12:00,
2013-02-18 08:22:00,-999.0,-99.9,-100.00,SW,225,6.0,8.0,100,-99.99,,,-99.99,,2013-02-18 15:22:00,
2013-02-18 08:32:00,-999.0,-99.9,-100.00,WSW,245,2.0,7.0,100,-99.99,,,-99.99,,2013-02-18 15:32:00,
2013-02-18 08:42:00,22.0,16.0,-100.00,SW,225,4.0,9.0,76,-99.99,,,-99.99,,2013-02-18 15:42:00,
2013-02-18 08:51:00,22.0,16.0,-100.00,SW,220,4.0,7.0,76,-99.99,,,-99.99,,2013-02-18 15:51:00,
2013-02-18 09:02:00,22.0,16.0,-100.00,SW,215,3.0,12.0,76,-99.99,,,-99.99,,2013-02-18 16:02:00,
2013-02-18 09:11:00,23.0,17.0,-100.00,SW,235,6.0,9.0,76,-99.99,,,-99.99,,2013-02-18 16:11:00,
2013-02-18 09:21:00,23.0,17.0,-100.00,West,280,6.0,11.0,76,-99.99,,,-99.99,,2013-02-18 16:21:00,
2013-02-18 09:31:00,23.0,17.0,-100.00,SW,215,6.0,10.0,76,-99.99,,,-99.99,,2013-02-18 16:31:00,
2013-02-18 09:42:00,23.0,17.0,-100.00,SW,215,6.0,10.0,76,-99.99,,,-99.99,,2013-02-18 16:42:00,
2013-02-18 09:54:00,-999.0,-99.9,-100.00,SW,230,6.0,9.0,100,-99.99,,,-99.99,,2013-02-18 16:54:00,
2013-02-18 10:04:00,-999.0,-99.9,-100.00,SW,230,6.0,9.0,100,-99.99,,,-99.99,,2013-02-18 17:04:00,
2013-02-18 10:13:00,-999.0,-99.9,-100.00,SSW,210,6.0,12.0,100,-99.99,,,-99.99,,2013-02-18 17:13:00,
2013-02-18 10:23:00,-999.0,-99.9,-100.00,SSW,210,6.0,12.0,100,-99.99,,,-99.99,,2013-02-18 17:23:00,
2013-02-18 10:33:00,-999.0,-99.9,-100.00,SW,215,6.0,14.0,100,-99.99,,,-99.99,,2013-02-18 17:33:00,
2013-02-18 10:43:00,25.0,18.0,-100.00,SW,235,7.0,14.0,73,-99.99,,,-99.99,,2013-02-18 17:43:00,
2013-02-18 10:52:00,26.0,18.0,-100.00,SW,220,9.0,15.0,72,-99.99,,,-99.99,,2013-02-18 17:52:00,
2013-02-18 11:01:00,26.0,18.0,-100.00,SW,220,9.0,15.0,72,-99.99,,,-99.99,,2013-02-18 18:01:00,
2013-02-18 11:13:00,-999.0,-99.9,-100.00,SW,215,7.0,12.0,100,-99.99,,,-99.99,,2013-02-18 18:13:00,
2013-02-18 11:33:00,-999.0,-99.9,-100.00,SW,235,6.0,14.0,100,-99.99,,,-99.99,,2013-02-18 18:33:00,
2013-02-18 11:41:00,32.0,23.0,-100.00,SSW,205,2.0,15.0,70,-99.99,,,-99.99,,2013-02-18 18:41:00,
2013-02-18 11:52:00,31.0,23.0,-100.00,SW,215,9.0,13.0,70,-99.99,,,-99.99,,2013-02-18 18:52:00,
2013-02-18 12:02:00,31.0,22.0,-100.00,SSW,205,6.0,12.0,69,-99.99,,,-99.99,,2013-02-18 19:02:00,
2013-02-18 12:11:00,31.0,23.0,-100.00,SW,215,7.0,15.0,70,-99.99,,,-99.99,,2013-02-18 19:11:00,
2013-02-18 12:21:00,32.0,24.0,-100.00,SW,215,11.0,15.0,70,-99.99,,,-99.99,,2013-02-18 19:21:00,
2013-02-18 12:32:00,32.0,24.0,-100.00,SW,215,11.0,15.0,70,-99.99,,,-99.99,,2013-02-18 19:32:00,
2013-02-18 12:43:00,-999.0,-99.9,-100.00,SSW,210,7.0,17.0,100,-99.99,,,-99.99,,2013-02-18 19:43:00,
2013-02-18 12:51:00,33.0,24.0,-100.00,SW,220,8.0,19.0,68,-99.99,,,-99.99,,2013-02-18 19:51:00,
2013-02-18 13:01:00,34.0,25.0,-100.00,SW,220,9.0,17.0,68,-99.99,,,-99.99,,2013-02-18 20:01:00,
2013-02-18 13:11:00,33.0,24.0,-100.00,SSW,210,7.0,18.0,68,-99.99,,,-99.99,,2013-02-18 20:11:00,
2013-02-18 13:21:00,34.0,25.0,-100.00,SW,215,10.0,16.0,68,-99.99,,,-99.99,,2013-02-18 20:21:00,
2013-02-18 13:32:00,34.0,25.0,-100.00,SW,215,10.0,16.0,68,-99.99,,,-99.99,,2013-02-18 20:32:00,
2013-02-18 13:41:00,34.0,25.0,-100.00,SW,215,9.0,17.0,67,-99.99,,,-99.99,,2013-02-18 20:41:00,
2013-02-18 13:52:00,34.0,25.0,-100.00,SSW,195,12.0,19.0,67,-99.99,,,-99.99,,2013-02-18 20:52:00,
2013-02-18 14:03:00,-999.0,-99.9,-100.00,SSW,195,12.0,19.0,100,-99.99,,,-99.99,,2013-02-18 21:03:00,
2013-02-18 14:12:00,-999.0,-99.9,-100.00,SW,225,8.0,21.0,100,-99.99,,,-99.99,,2013-02-18 21:12:00,
2013-02-18 14:23:00,-999.0,-99.9,-100.00,SW,225,8.0,21.0,100,-99.99,,,-99.99,,2013-02-18 21:23:00,
2013-02-18 14:33:00,-999.0,-99.9,-100.00,SW,225,6.0,14.0,100,-99.99,,,-99.99,,2013-02-18 21:33:00,
2013-02-18 14:43:00,-999.0,-99.9,-100.00,SW,225,6.0,14.0,100,-99.99,,,-99.99,,2013-02-18 21:43:00,
2013-02-18 14:51:00,35.0,24.0,-100.00,SW,220,8.0,17.0,65,-99.99,,,-99.99,,2013-02-18 21:51:00,
2013-02-18 15:03:00,-999.0,-99.9,-100.00,SW,220,9.0,17.0,100,-99.99,,,-99.99,,2013-02-18 22:03:00,
2013-02-18 15:13:00,-999.0,-99.9,-100.00,SW,220,9.0,17.0,100,-99.99,,,-99.99,,2013-02-18 22:13:00,
2013-02-18 15:23:00,-999.0,-99.9,-100.00,SW,220,9.0,20.0,100,-99.99,,,-99.99,,2013-02-18 22:23:00,
2013-02-18 15:32:00,36.0,25.0,-100.00,NW,310,2.0,14.0,63,-99.99,,,-99.99,,2013-02-18 22:32:00,
2013-02-18 15:41:00,36.0,25.0,-100.00,SW,215,8.0,17.0,63,-99.99,,,-99.99,,2013-02-18 22:41:00,
2013-02-18 15:53:00,36.0,25.0,-100.00,SW,220,11.0,17.0,63,-99.99,,,-99.99,,2013-02-18 22:53:00,
2013-02-18 16:01:00,36.0,25.0,-100.00,SW,220,11.0,17.0,63,-99.99,,,-99.99,,2013-02-18 23:01:00,
2013-02-18 16:12:00,-999.0,-99.9,-100.00,SW,230,4.0,17.0,100,-99.99,,,-99.99,,2013-02-18 23:12:00,
2013-02-18 16:23:00,-999.0,-99.9,-100.00,SW,230,4.0,17.0,100,-99.99,,,-99.99,,2013-02-18 23:23:00,
2013-02-18 16:34:00,-999.0,-99.9,-100.00,SW,220,9.0,17.0,100,-99.99,,,-99.99,,2013-02-18 23:34:00,
2013-02-18 16:42:00,34.0,23.0,-100.00,SW,215,6.0,18.0,63,-99.99,,,-99.99,,2013-02-18 23:42:00,
2013-02-18 16:52:00,34.0,23.0,-100.00,SW,215,6.0,18.0,63,-99.99,,,-99.99,,2013-02-18 23:52:00,
2013-02-18 17:01:00,34.0,22.0,-100.00,SSW,210,6.0,12.0,62,-99.99,,,-99.99,,2013-02-19 00:01:00,
2013-02-18 17:11:00,34.0,23.0,-100.00,SSW,210,6.0,13.0,64,-99.99,,,-99.99,,2013-02-19 00:11:00,
2013-02-18 17:21:00,33.0,23.0,-100.00,SW,215,6.0,14.0,64,-99.99,,,-99.99,,2013-02-19 00:21:00,
2013-02-18 17:33:00,34.0,23.0,-100.00,SW,220,6.0,12.0,64,-99.99,,,-99.99,,2013-02-19 00:33:00,
2013-02-18 17:42:00,33.0,23.0,-100.00,SW,225,4.0,11.0,64,-99.99,,,-99.99,,2013-02-19 00:42:00,
2013-02-18 17:52:00,33.0,23.0,-100.00,SW,235,3.0,12.0,65,-99.99,,,-99.99,,2013-02-19 00:52:00,
2013-02-18 18:02:00,33.0,22.0,-100.00,SSW,205,3.0,9.0,65,-99.99,,,-99.99,,2013-02-19 01:02:00,
2013-02-18 18:12:00,33.0,22.0,-100.00,SSW,205,3.0,9.0,65,-99.99,,,-99.99,,2013-02-19 01:12:00,
2013-02-18 18:21:00,33.0,22.0,-100.00,WSW,240,1.0,6.0,65,-99.99,,,-99.99,,2013-02-19 01:21:00,
2013-02-18 18:35:00,-999.0,-99.9,-100.00,SSE,160,0.0,7.0,100,-99.99,,,-99.99,,2013-02-19 01:35:00,
2013-02-18 18:46:00,-999.0,-99.9,-100.00,SSE,160,0.0,7.0,100,-99.99,,,-99.99,,2013-02-19 01:46:00,
2013-02-18 18:57:00,-999.0,-99.9,-100.00,WNW,295,0.0,1.0,100,-99.99,,,-99.99,,2013-02-19 01:57:00,
2013-02-18 19:04:00,-999.0,-99.9,-100.00,WNW,295,0.0,1.0,100,-99.99,,,-99.99,,2013-02-19 02:04:00,
2013-02-18 19:15:00,-999.0,-99.9,-100.00,West,270,0.0,2.0,100,-99.99,,,-99.99,,2013-02-19 02:15:00,
2013-02-18 19:23:00,-999.0,-99.9,-100.00,West,270,0.0,2.0,100,-99.99,,,-99.99,,2013-02-19 02:23:00,
2013-02-18 19:32:00,30.0,21.0,-100.00,WNW,295,0.0,0.0,68,-99.99,,,-99.99,,2013-02-19 02:32:00,
2013-02-18 19:42:00,29.0,21.0,-100.00,West,280,0.0,1.0,69,-99.99,,,-99.99,,2013-02-19 02:42:00,
2013-02-18 19:52:00,29.0,21.0,-100.00,West,280,0.0,1.0,69,-99.99,,,-99.99,,2013-02-19 02:52:00,
2013-02-18 20:04:00,29.0,20.0,-100.00,WSW,250,2.0,3.0,69,-99.99,,,-99.99,,2013-02-19 03:04:00,
2013-02-18 20:15:00,-999.0,-99.9,-100.00,SW,220,0.0,2.0,100,-99.99,,,-99.99,,2013-02-19 03:15:00,
2013-02-18 20:25:00,-999.0,-99.9,-100.00,SW,220,0.0,2.0,100,-99.99,,,-99.99,,2013-02-19 03:25:00,
2013-02-18 20:33:00,28.0,20.0,-100.00,ESE,115,0.0,0.0,72,-99.99,,,-99.99,,2013-02-19 03:33:00,
2013-02-18 20:46:00,-999.0,-99.9,-100.00,WSW,250,0.0,1.0,100,-99.99,,,-99.99,,2013-02-19 03:46:00,
2013-02-18 20:56:00,-999.0,-99.9,-100.00,WSW,250,0.0,1.0,100,-99.99,,,-99.99,,2013-02-19 03:56:00,
2013-02-18 21:03:00,-999.0,-99.9,-100.00,SE,130,0.0,0.0,100,-99.99,,,-99.99,,2013-02-19 04:03:00,
2013-02-18 21:15:00,-999.0,-99.9,-100.00,SE,130,0.0,0.0,100,-99.99,,,-99.99,,2013-02-19 04:15:00,
2013-02-18 21:21:00,26.0,19.0,-100.00,South,175,0.0,0.0,75,-99.99,,,-99.99,,2013-02-19 04:21:00,
2013-02-18 21:32:00,25.0,16.0,-100.00,South,185,0.0,1.0,69,-99.99,,,-99.99,,2013-02-19 04:32:00,
2013-02-18 21:42:00,24.0,15.0,-100.00,SE,130,0.0,0.0,66,-99.99,,,-99.99,,2013-02-19 04:42:00,
2013-02-18 21:51:00,24.0,15.0,-100.00,SE,130,0.0,0.0,66,-99.99,,,-99.99,,2013-02-19 04:51:00,
2013-02-18 22:01:00,24.0,12.0,-100.00,NE,50,0.0,1.0,61,-99.99,,,-99.99,,2013-02-19 05:01:00,
2013-02-18 22:13:00,-999.0,-99.9,-100.00,East,85,0.0,1.0,100,-99.99,,,-99.99,,2013-02-19 05:13:00,
2013-02-18 22:23:00,-999.0,-99.9,-100.00,East,85,0.0,1.0,100,-99.99,,,-99.99,,2013-02-19 05:23:00,
2013-02-18 22:33:00,-999.0,-99.9,-100.00,NE,50,1.0,3.0,100,-99.99,,,-99.99,,2013-02-19 05:33:00,
2013-02-18 22:42:00,22.0,11.0,-100.00,NNE,20,1.0,3.0,61,-99.99,,,-99.99,,2013-02-19 05:42:00,
2013-02-18 22:52:00,22.0,11.0,-100.00,NNE,20,1.0,3.0,61,-99.99,,,-99.99,,2013-02-19 05:52:00,
2013-02-18 23:03:00,-999.0,-99.9,-100.00,NE,40,1.0,3.0,100,-99.99,,,-99.99,,2013-02-19 06:03:00,
2013-02-18 23:11:00,22.0,11.0,-100.00,ENE,65,0.0,4.0,62,-99.99,,,-99.99,,2013-02-19 06:11:00,
2013-02-18 23:21:00,22.0,11.0,-100.00,ENE,65,0.0,4.0,62,-99.99,,,-99.99,,2013-02-19 06:21:00,
2013-02-18 23:32:00,21.0,10.0,-100.00,NE,55,0.0,2.0,62,-99.99,,,-99.99,,2013-02-19 06:32:00,
2013-02-18 23:42:00,-999.0,-99.9,-100.00,NNE,20,0.0,3.0,100,-99.99,,,-99.99,,2013-02-19 06:42:00,
2013-02-18 23:53:00,-999.0,-99.9,-100.00,NNE,20,0.0,3.0,100,-99.99,,,-99.99,,2013-02-19 06:53:00,